Location: Azul
(36.7830°S, 59.8500°W)
Time: 02:38:14
(UTC-03:00)

AO-109 - Visible Passes

Search period start: 23 October 2021 00:00
Search period end: 02 November 2021 00:00
Orbit: 471 x 527 km, 60.7° (Epoch: 22 October)

Date Brightness Start Highest point End Pass type
(mag) Time Alt. Az. Time Alt. Az. Time Alt. Az.
29 Oct ? 22:59:15 12° S 22:59:15 12° S 22:59:45 10° S visible
30 Oct ? 21:00:06 16° ESE 21:00:06 16° ESE 21:01:09 10° SE visible
30 Oct ? 22:34:01 18° WSW 22:35:21 22° SW 22:38:29 10° S visible
31 Oct ? 05:11:00 10° SSW 05:14:24 25° SE 05:17:45 10° ENE visible
31 Oct ? 20:32:50 10° N 20:36:15 31° ENE 20:39:46 10° SE visible
31 Oct ? 22:10:52 10° W 22:13:59 23° SW 22:17:12 10° S visible
01 Nov ? 04:49:43 10° S 04:53:03 24° SE 04:56:20 10° E visible
01 Nov ? 20:11:36 10° N 20:14:56 29° ENE 20:18:23 10° ESE visible
01 Nov ? 21:49:26 10° W 21:52:38 24° SW 21:55:55 10° S visible
